QPF
0.00 0.00 0.00 0.00 0.00 0.00 0.00 0.00 0.00 0.00 0.00 0.00 0.00 0.00 0.00 0.00 0.00 0.00 0.00 0.00 0.00 0.00 0.00 0.00 0.01 0.00 0.00 0.00 0.00 0.01 0.01 0.02 0.02 0.02 0.03 0.03 0.04 0.04 0.03 0.04 0.05 0.07 0.06 0.08
0.00 0.00 0.00 0.00 0.00 0.00 0.00 0.00 0.00 0.00 0.00 0.00 0.00 0.00 0.00 0.00 0.00 0.00 0.00 0.00 0.00 0.00 0.00 0.00 0.00 0.00 0.00 0.00 0.00 0.00 0.00 0.01 0.01 0.02 0.03 0.02 0.02 0.03 0.03 0.03 0.04 0.04 0.04 0.06
0.00 0.00 0.00 0.00 0.00 0.00 0.00 0.00 0.00 0.00 0.00 0.00 0.00 0.00 0.00 0.00 0.00 0.00 0.00 0.00 0.00 0.00 0.00 0.00 0.00 0.00 0.00 0.00 0.00 0.00 0.00 0.01 0.01 0.01 0.02 0.02 0.02 0.02 0.02 0.02 0.03 0.04 0.05 0.07
0.00 0.00 0.00 0.00 0.00 0.00 0.00 0.00 0.00 0.00 0.00 0.00 0.00 0.00 0.00 0.00 0.00 0.00 0.00 0.00 0.00 0.00 0.00 0.00 0.00 0.00 0.00 0.00 0.00 0.00 0.00 0.00 0.00 0.01 0.01 0.01 0.01 0.01 0.01 0.02 0.02 0.03 0.04 0.05
0.00 0.00 0.00 0.00 0.00 0.00 0.00 0.00 0.00 0.00 0.00 0.00 0.00 0.00 0.00 0.00 0.00 0.00 0.00 0.00 0.00 0.00 0.00 0.00 0.00 0.00 0.00 0.00 0.00 0.00 0.00 0.00 0.00 0.00 0.01 0.01 0.01 0.01 0.01 0.01 0.01 0.01 0.02 0.03
0.00 0.00 0.00 0.00 0.00 0.00 0.00 0.00 0.00 0.00 0.00 0.00 0.00 0.00 0.00 0.00 0.00 0.00 0.00 0.00 0.00 0.00 0.00 0.00 0.00 0.00 0.00 0.00 0.00 0.00 0.00 0.00 0.00 0.00 0.01 0.00 0.00 0.01 0.01 0.01 0.01 0.02 0.02 0.03
0.00 0.00 0.00 0.00 0.00 0.00 0.00 0.00 0.00 0.00 0.00 0.00 0.00 0.00 0.00 0.00 0.00 0.00 0.00 0.00 0.00 0.00 0.00 0.00 0.00 0.00 0.00 0.00 0.00 0.00 0.00 0.00 0.00 0.00 0.00 0.00 0.00 0.00 0.01 0.01 0.01 0.02 0.03 0.03
0.00 0.00 0.00 0.00 0.00 0.00 0.00 0.00 0.00 0.00 0.00 0.00 0.00 0.00 0.00 0.00 0.00 0.00 0.00 0.00 0.00 0.00 0.00 0.00 0.00 0.00 0.00 0.00 0.00 0.00 0.00 0.00 0.00 0.00 0.00 0.00 0.00 0.01 0.01 0.01 0.01 0.01 0.01 0.02
0.00 0.00 0.00 0.00 0.00 0.00 0.00 0.00 0.00 0.00 0.00 0.00 0.00 0.00 0.00 0.00 0.00 0.00 0.00 0.00 0.00 0.00 0.00 0.00 0.00 0.00 0.00 0.00 0.00 0.00 0.00 0.00 0.00 0.00 0.00 0.00 0.00 0.00 0.00 0.00 0.00 0.00 0.00 0.01
0.00 0.00 0.00 0.00 0.00 0.00 0.00 0.00 0.00 0.00 0.00 0.00 0.00 0.00 0.00 0.00 0.00 0.00 0.00 0.00 0.00 0.00 0.00 0.00 0.00 0.00 0.00 0.00 0.00 0.00 0.00 0.00 0.00 0.00 0.00 0.00 0.00 0.00 0.00 0.00 0.00 0.00 0.00 0.01
0.00 0.00 0.00 0.00 0.00 0.00 0.00 0.00 0.00 0.00 0.00 0.00 0.00 0.00 0.00 0.00 0.00 0.00 0.00 0.00 0.00 0.00 0.00 0.00 0.00 0.00 0.00 0.00 0.00 0.00 0.00 0.00 0.00 0.00 0.00 0.00 0.00 0.00 0.00 0.00 0.00 0.00 0.00 0.00
0.00 0.00 0.00 0.00 0.00 0.00 0.00 0.00 0.00 0.00 0.00 0.00 0.00 0.00 0.00 0.00 0.00 0.00 0.00 0.00 0.00 0.00 0.00 0.00 0.00 0.00 0.00 0.00 0.00 0.00 0.00 0.00 0.00 0.00 0.00 0.00 0.00 0.00 0.00 0.00 0.00 0.00 0.00 0.00
0.00 0.00 0.00 0.00 0.00 0.00 0.00 0.00 0.00 0.00 0.00 0.00 0.00 0.00 0.00 0.00 0.00 0.00 0.00 0.00 0.00 0.00 0.00 0.00 0.00 0.00 0.00 0.00 0.00 0.00 0.00 0.00 0.00 0.00 0.00 0.00 0.00 0.00 0.00 0.00 0.00 0.00 0.00 0.00
0.00 0.00 0.00 0.00 0.00 0.00 0.00 0.00 0.00 0.00 0.00 0.00 0.00 0.00 0.00 0.00 0.00 0.00 0.00 0.00 0.00 0.00 0.00 0.00 0.00 0.00 0.00 0.00 0.00 0.00 0.00 0.00 0.00 0.00 0.00 0.00 0.00 0.00 0.00 0.00 0.00 0.00 0.00 0.00
0.00 0.00 0.00 0.00 0.00 0.00 0.00 0.00 0.00 0.00 0.00 0.00 0.00 0.00 0.00 0.00 0.00 0.00 0.00 0.00 0.00 0.00 0.00 0.00 0.00 0.00 0.00 0.00 0.00 0.00 0.00 0.00 0.00 0.00 0.00 0.00 0.00 0.00 0.00 0.00 0.00 0.00 0.00 0.00
0.00 0.00 0.00 0.00 0.00 0.00 0.00 0.00 0.00 0.00 0.00 0.00 0.00 0.00 0.00 0.00 0.00 0.00 0.00 0.00 0.00 0.00 0.00 0.00 0.00 0.00 0.00 0.00 0.00 0.00 0.00 0.00 0.00 0.00 0.00 0.00 0.00 0.00 0.00 0.00 0.00 0.00 0.00 0.00
0.00 0.00 0.00 0.00 0.00 0.00 0.00 0.00 0.00 0.00 0.00 0.00 0.00 0.00 0.00 0.00 0.00 0.00 0.00 0.00 0.00 0.00 0.00 0.00 0.00 0.00 0.00 0.00 0.00 0.00 0.00 0.00 0.00 0.00 0.00 0.00 0.00 0.00 0.00 0.00 0.00 0.00 0.00 0.00
0.00 0.00 0.00 0.00 0.00 0.00 0.00 0.00 0.00 0.00 0.00 0.00 0.00 0.00 0.00 0.00 0.00 0.00 0.00 0.00 0.00 0.00 0.00 0.00 0.00 0.00 0.00 0.00 0.00 0.00 0.00 0.00 0.00 0.00 0.00 0.00 0.00 0.00 0.00 0.00 0.00 0.00 0.00 0.00
0.00 0.00 0.00 0.00 0.00 0.00 0.00 0.00 0.00 0.00 0.00 0.00 0.00 0.00 0.00 0.00 0.00 0.00 0.00 0.00 0.00 0.00 0.00 0.00 0.00 0.00 0.00 0.00 0.00 0.00 0.00 0.00 0.00 0.00 0.00 0.00 0.00 0.00 0.00 0.00 0.00 0.00 0.00 0.00
0.00 0.00 0.00 0.00 0.00 0.00 0.00 0.00 0.00 0.00 0.00 0.00 0.00 0.00 0.00 0.00 0.00 0.00 0.00 0.00 0.00 0.00 0.00 0.00 0.00 0.00 0.00 0.00 0.00 0.00 0.00 0.00 0.00 0.00 0.00 0.00 0.00 0.00 0.00 0.00 0.00 0.00 0.00 0.00
0.00 0.00 0.00 0.00 0.00 0.00 0.00 0.00 0.00 0.00 0.00 0.00 0.00 0.00 0.00 0.00 0.00 0.00 0.00 0.00 0.00 0.00 0.00 0.00 0.00 0.00 0.00 0.00 0.00 0.00 0.00 0.00 0.00 0.00 0.00 0.00 0.00 0.00 0.00 0.00 0.00 0.00 0.00 0.00
0.00 0.00 0.00 0.00 0.00 0.00 0.00 0.00 0.00 0.00 0.00 0.00 0.00 0.00 0.00 0.00 0.00 0.00 0.00 0.00 0.00 0.00 0.00 0.00 0.00 0.00 0.00 0.00 0.00 0.00 0.00 0.00 0.00 0.00 0.00 0.00 0.00 0.00 0.00 0.00 0.00 0.00 0.00 0.00
0.00 0.00 0.00 0.00 0.00 0.00 0.00 0.00 0.00 0.00 0.00 0.00 0.00 0.00 0.00 0.00 0.00 0.00 0.00 0.00 0.00 0.00 0.00 0.00 0.00 0.00 0.00 0.00 0.00 0.00 0.00 0.00 0.00 0.00 0.00 0.00 0.00 0.00 0.00 0.00 0.00 0.00 0.00 0.00
0.00 0.00 0.00 0.00 0.00 0.00 0.00 0.00 0.00 0.00 0.00 0.00 0.00 0.00 0.00 0.00 0.00 0.00 0.00 0.00 0.00 0.00 0.00 0.00 0.00 0.00 0.00 0.00 0.00 0.00 0.00 0.00 0.00 0.00 0.00 0.00 0.00 0.00 0.00 0.00 0.00 0.00 0.00 0.00
0.00 0.00 0.00 0.00 0.00 0.00 0.00 0.00 0.00 0.00 0.00 0.00 0.00 0.00 0.00 0.00 0.00 0.00 0.00 0.00 0.00 0.00 0.00 0.00 0.00 0.00 0.00 0.00 0.00 0.00 0.00 0.00 0.00 0.00 0.00 0.00 0.00 0.00 0.00 0.00 0.00 0.00 0.00 0.00
0.00 0.00 0.00 0.00 0.00 0.00 0.00 0.00 0.00 0.00 0.00 0.00 0.00 0.00 0.00 0.00 0.00 0.00 0.00 0.00 0.00 0.00 0.00 0.00 0.00 0.00 0.00 0.00 0.00 0.00 0.00 0.00 0.00 0.00 0.00 0.00 0.00 0.00 0.00 0.00 0.00 0.00 0.00 0.00
0.00 0.00 0.00 0.00 0.00 0.00 0.00 0.00 0.00 0.00 0.00 0.00 0.00 0.00 0.00 0.00 0.00 0.00 0.00 0.00 0.00 0.00 0.00 0.00 0.00 0.00 0.00 0.00 0.00 0.00 0.00 0.00 0.00 0.00 0.00 0.00 0.00 0.00 0.00 0.00 0.00 0.00 0.00 0.00
MSLP
1017.71 1017.89 1018.08 1018.30 1018.54 1018.76 1018.97 1019.14 1019.26 1019.32 1019.33 1019.30 1019.24 1019.16 1019.07 1018.98 1018.90 1018.81 1018.70 1018.58 1018.43 1018.26 1018.06 1017.86 1017.66 1017.48 1017.33 1017.20 1017.09 1017.00 1016.91 1016.79 1016.65 1016.46 1016.23 1015.96 1015.66 1015.35 1015.03 1014.72 1014.42 1014.13 1013.86 1013.59
1017.83 1017.95 1018.04 1018.11 1018.17 1018.23 1018.27 1018.31 1018.35 1018.38 1018.41 1018.43 1018.46 1018.47 1018.48 1018.47 1018.45 1018.39 1018.31 1018.19 1018.04 1017.88 1017.70 1017.54 1017.40 1017.29 1017.22 1017.18 1017.16 1017.16 1017.14 1017.10 1017.01 1016.88 1016.71 1016.49 1016.24 1015.97 1015.70 1015.42 1015.16 1014.90 1014.65 1014.40
1018.00 1018.05 1018.03 1017.95 1017.84 1017.72 1017.61 1017.52 1017.48 1017.48 1017.52 1017.60 1017.70 1017.81 1017.91 1017.99 1018.03 1018.01 1017.95 1017.84 1017.70 1017.54 1017.39 1017.26 1017.17 1017.12 1017.13 1017.17 1017.23 1017.30 1017.34 1017.35 1017.31 1017.23 1017.08 1016.90 1016.68 1016.44 1016.21 1015.97 1015.74 1015.51 1015.29 1015.07
1018.19 1018.17 1018.03 1017.82 1017.55 1017.27 1017.02 1016.83 1016.71 1016.68 1016.74 1016.87 1017.05 1017.25 1017.44 1017.60 1017.69 1017.72 1017.68 1017.59 1017.45 1017.31 1017.18 1017.08 1017.04 1017.05 1017.11 1017.21 1017.33 1017.44 1017.53 1017.57 1017.55 1017.47 1017.35 1017.18 1016.98 1016.77 1016.55 1016.35 1016.15 1015.96 1015.77 1015.59
1018.28 1018.19 1017.96 1017.63 1017.25 1016.85 1016.50 1016.22 1016.06 1016.02 1016.10 1016.28 1016.54 1016.81 1017.08 1017.31 1017.46 1017.53 1017.52 1017.45 1017.33 1017.21 1017.10 1017.04 1017.03 1017.08 1017.19 1017.33 1017.48 1017.61 1017.71 1017.75 1017.73 1017.66 1017.53 1017.36 1017.17 1016.98 1016.79 1016.62 1016.45 1016.30 1016.16 1016.01
1018.17 1018.01 1017.71 1017.30 1016.84 1016.37 1015.97 1015.66 1015.49 1015.46 1015.58 1015.81 1016.13 1016.48 1016.81 1017.10 1017.30 1017.41 1017.44 1017.39 1017.31 1017.21 1017.13 1017.10 1017.13 1017.21 1017.35 1017.51 1017.67 1017.81 1017.90 1017.93 1017.90 1017.80 1017.67 1017.50 1017.32 1017.15 1016.99 1016.85 1016.72 1016.61 1016.51 1016.39
1017.74 1017.52 1017.18 1016.73 1016.24 1015.77 1015.36 1015.07 1014.93 1014.95 1015.11 1015.40 1015.78 1016.19 1016.58 1016.91 1017.16 1017.31 1017.37 1017.36 1017.31 1017.24 1017.20 1017.21 1017.27 1017.38 1017.54 1017.71 1017.87 1018.00 1018.08 1018.09 1018.05 1017.94 1017.80 1017.64 1017.48 1017.33 1017.21 1017.11 1017.03 1016.96 1016.89 1016.81
1016.96 1016.71 1016.34 1015.90 1015.43 1015.00 1014.64 1014.42 1014.34 1014.42 1014.66 1015.01 1015.43 1015.89 1016.32 1016.69 1016.97 1017.16 1017.25 1017.28 1017.26 1017.24 1017.24 1017.28 1017.37 1017.51 1017.68 1017.86 1018.03 1018.15 1018.22 1018.23 1018.18 1018.08 1017.95 1017.81 1017.68 1017.58 1017.49 1017.44 1017.41 1017.38 1017.34 1017.29
1015.90 1015.61 1015.25 1014.84 1014.44 1014.08 1013.82 1013.68 1013.70 1013.87 1014.17 1014.59 1015.06 1015.55 1016.01 1016.40 1016.71 1016.91 1017.04 1017.09 1017.11 1017.13 1017.16 1017.24 1017.36 1017.52 1017.71 1017.90 1018.07 1018.20 1018.28 1018.30 1018.27 1018.19 1018.10 1018.00 1017.92 1017.86 1017.83 1017.83 1017.84 1017.86 1017.85 1017.82
1014.69 1014.39 1014.04 1013.69 1013.36 1013.10 1012.95 1012.92 1013.04 1013.30 1013.67 1014.14 1014.65 1015.16 1015.63 1016.04 1016.35 1016.57 1016.71 1016.79 1016.84 1016.88 1016.95 1017.05 1017.19 1017.38 1017.58 1017.79 1017.97 1018.12 1018.22 1018.27 1018.27 1018.24 1018.20 1018.16 1018.14 1018.14 1018.17 1018.23 1018.29 1018.34 1018.37 1018.36
1013.55 1013.23 1012.90 1012.60 1012.35 1012.18 1012.13 1012.20 1012.41 1012.75 1013.18 1013.68 1014.22 1014.74 1015.22 1015.62 1015.93 1016.16 1016.31 1016.40 1016.46 1016.52 1016.61 1016.72 1016.88 1017.08 1017.29 1017.51 1017.71 1017.88 1018.01 1018.10 1018.15 1018.18 1018.20 1018.23 1018.27 1018.34 1018.43 1018.54 1018.64 1018.73 1018.79 1018.80
1012.68 1012.34 1012.02 1011.75 1011.55 1011.45 1011.47 1011.61 1011.88 1012.26 1012.73 1013.26 1013.80 1014.32 1014.79 1015.18 1015.49 1015.71 1015.86 1015.96 1016.03 1016.10 1016.19 1016.31 1016.47 1016.67 1016.88 1017.10 1017.31 1017.50 1017.66 1017.79 1017.89 1017.97 1018.06 1018.14 1018.25 1018.38 1018.51 1018.66 1018.81 1018.93 1019.02 1019.06
1012.24 1011.87 1011.53 1011.26 1011.07 1010.99 1011.02 1011.19 1011.48 1011.87 1012.34 1012.86 1013.39 1013.90 1014.36 1014.74 1015.05 1015.27 1015.43 1015.54 1015.61 1015.69 1015.78 1015.89 1016.04 1016.22 1016.42 1016.63 1016.84 1017.03 1017.21 1017.36 1017.50 1017.63 1017.76 1017.89 1018.04 1018.20 1018.38 1018.55 1018.72 1018.87 1018.98 1019.05
1012.26 1011.84 1011.47 1011.15 1010.92 1010.80 1010.80 1010.94 1011.19 1011.55 1011.99 1012.47 1012.98 1013.47 1013.91 1014.29 1014.60 1014.84 1015.01 1015.13 1015.23 1015.31 1015.40 1015.51 1015.64 1015.80 1015.98 1016.17 1016.36 1016.55 1016.72 1016.89 1017.04 1017.19 1017.33 1017.48 1017.65 1017.82 1018.00 1018.19 1018.36 1018.53 1018.66 1018.77
1012.69 1012.22 1011.76 1011.36 1011.05 1010.84 1010.76 1010.80 1010.97 1011.25 1011.62 1012.05 1012.51 1012.98 1013.41 1013.79 1014.12 1014.38 1014.58 1014.74 1014.86 1014.96 1015.06 1015.17 1015.30 1015.44 1015.60 1015.76 1015.93 1016.10 1016.26 1016.41 1016.55 1016.69 1016.83 1016.97 1017.12 1017.28 1017.44 1017.61 1017.78 1017.94 1018.09 1018.22
1013.40 1012.85 1012.30 1011.79 1011.36 1011.02 1010.80 1010.72 1010.76 1010.93 1011.20 1011.55 1011.95 1012.37 1012.79 1013.18 1013.53 1013.82 1014.07 1014.27 1014.44 1014.59 1014.72 1014.85 1014.98 1015.12 1015.27 1015.42 1015.57 1015.71 1015.85 1015.97 1016.09 1016.20 1016.31 1016.41 1016.53 1016.65 1016.77 1016.91 1017.05 1017.20 1017.35 1017.50
1014.21 1013.59 1012.94 1012.31 1011.73 1011.24 1010.87 1010.63 1010.52 1010.55 1010.70 1010.94 1011.26 1011.63 1012.02 1012.41 1012.78 1013.11 1013.41 1013.67 1013.90 1014.11 1014.29 1014.47 1014.63 1014.79 1014.95 1015.11 1015.25 1015.38 1015.49 1015.60 1015.68 1015.76 1015.82 1015.89 1015.95 1016.02 1016.09 1016.18 1016.28 1016.40 1016.54 1016.69
1014.98 1014.29 1013.55 1012.81 1012.09 1011.46 1010.92 1010.52 1010.25 1010.12 1010.13 1010.25 1010.47 1010.77 1011.11 1011.48 1011.86 1012.22 1012.56 1012.88 1013.18 1013.45 1013.71 1013.94 1014.17 1014.38 1014.57 1014.75 1014.91 1015.05 1015.17 1015.26 1015.33 1015.38 1015.41 1015.42 1015.44 1015.45 1015.47 1015.51 1015.57 1015.65 1015.76 1015.90
1015.61 1014.88 1014.07 1013.24 1012.42 1011.66 1010.98 1010.43 1010.01 1009.73 1009.59 1009.58 1009.68 1009.88 1010.15 1010.47 1010.81 1011.18 1011.54 1011.90 1012.25 1012.58 1012.91 1013.22 1013.51 1013.79 1014.06 1014.29 1014.50 1014.68 1014.82 1014.93 1015.00 1015.04 1015.05 1015.04 1015.01 1014.98 1014.96 1014.95 1014.96 1015.00 1015.08 1015.19
1016.07 1015.33 1014.50 1013.62 1012.74 1011.90 1011.13 1010.46 1009.91 1009.49 1009.21 1009.06 1009.03 1009.11 1009.27 1009.50 1009.78 1010.10 1010.44 1010.80 1011.17 1011.55 1011.93 1012.30 1012.67 1013.03 1013.36 1013.67 1013.95 1014.18 1014.38 1014.52 1014.62 1014.68 1014.70 1014.68 1014.65 1014.60 1014.55 1014.51 1014.48 1014.48 1014.52 1014.60
1016.39 1015.68 1014.87 1014.00 1013.12 1012.25 1011.44 1010.70 1010.07 1009.55 1009.15 1008.86 1008.69 1008.63 1008.65 1008.75 1008.92 1009.15 1009.42 1009.73 1010.08 1010.46 1010.86 1011.27 1011.69 1012.10 1012.51 1012.89 1013.24 1013.54 1013.80 1014.00 1014.15 1014.25 1014.30 1014.31 1014.28 1014.24 1014.18 1014.13 1014.09 1014.07 1014.07 1014.11
1016.63 1015.98 1015.24 1014.44 1013.61 1012.78 1011.98 1011.24 1010.57 1009.99 1009.49 1009.10 1008.79 1008.58 1008.45 1008.39 1008.41 1008.50 1008.66 1008.87 1009.14 1009.47 1009.84 1010.24 1010.67 1011.12 1011.57 1012.00 1012.40 1012.77 1013.09 1013.35 1013.55 1013.70 1013.80 1013.85 1013.86 1013.84 1013.80 1013.76 1013.72 1013.69 1013.67 1013.69
1016.81 1016.25 1015.63 1014.94 1014.22 1013.49 1012.77 1012.07 1011.42 1010.82 1010.28 1009.80 1009.38 1009.03 1008.75 1008.53 1008.38 1008.31 1008.30 1008.38 1008.52 1008.75 1009.04 1009.38 1009.78 1010.20 1010.65 1011.09 1011.52 1011.91 1012.27 1012.58 1012.83 1013.02 1013.17 1013.26 1013.32 1013.34 1013.34 1013.33 1013.31 1013.29 1013.27 1013.27
1016.94 1016.50 1016.01 1015.47 1014.90 1014.31 1013.71 1013.12 1012.54 1011.98 1011.43 1010.91 1010.42 1009.96 1009.55 1009.18 1008.86 1008.61 1008.44 1008.35 1008.34 1008.43 1008.59 1008.83 1009.14 1009.49 1009.88 1010.28 1010.69 1011.07 1011.43 1011.74 1012.01 1012.24 1012.41 1012.55 1012.65 1012.72 1012.76 1012.79 1012.80 1012.81 1012.82 1012.82
1016.98 1016.67 1016.33 1015.95 1015.55 1015.13 1014.69 1014.23 1013.77 1013.28 1012.79 1012.27 1011.76 1011.24 1010.73 1010.24 1009.79 1009.40 1009.06 1008.80 1008.64 1008.56 1008.57 1008.67 1008.85 1009.09 1009.37 1009.69 1010.02 1010.34 1010.65 1010.93 1011.19 1011.40 1011.59 1011.75 1011.87 1011.98 1012.07 1012.14 1012.20 1012.25 1012.28 1012.31
1016.89 1016.70 1016.49 1016.27 1016.04 1015.79 1015.52 1015.22 1014.89 1014.52 1014.11 1013.66 1013.17 1012.64 1012.10 1011.55 1011.02 1010.51 1010.05 1009.66 1009.35 1009.12 1008.98 1008.93 1008.96 1009.05 1009.20 1009.39 1009.60 1009.82 1010.03 1010.24 1010.44 1010.62 1010.78 1010.93 1011.06 1011.19 1011.31 1011.42 1011.52 1011.61 1011.68 1011.74
1016.61 1016.51 1016.42 1016.33 1016.24 1016.15 1016.03 1015.89 1015.70 1015.47 1015.17 1014.81 1014.39 1013.92 1013.40 1012.86 1012.30 1011.75 1011.23 1010.75 1010.33 1009.99 1009.72 1009.53 1009.41 1009.36 1009.35 1009.40 1009.47 1009.55 1009.65 1009.76 1009.86 1009.97 1010.07 1010.19 1010.30 1010.43 1010.56 1010.69 1010.82 1010.95 1011.06 1011.15
Thickness
5736 5734 5730 5723 5718 5715 5708 5705 5697 5697 5695 5698 5696 5691 5688 5685 5681 5678 5676 5673 5671 5668 5666 5665 5663 5660 5657 5654 5652 5651 5647 5645 5643 5643 5642 5641 5641 5641 5641 5643 5644 5645 5646 5647
5736 5737 5733 5726 5726 5721 5715 5712 5708 5705 5703 5712 5707 5700 5694 5691 5686 5681 5679 5677 5675 5674 5671 5669 5667 5664 5660 5657 5655 5652 5648 5645 5644 5642 5640 5639 5638 5638 5638 5638 5639 5640 5640 5640
5737 5741 5733 5728 5740 5732 5725 5725 5718 5709 5714 5715 5707 5702 5698 5696 5691 5687 5685 5682 5680 5678 5675 5674 5672 5669 5664 5660 5658 5654 5650 5647 5644 5642 5639 5637 5636 5636 5635 5634 5634 5634 5634 5634
5738 5738 5718 5739 5756 5750 5738 5735 5734 5728 5725 5720 5714 5711 5707 5704 5698 5693 5691 5687 5684 5683 5681 5680 5678 5674 5670 5665 5660 5655 5651 5648 5645 5641 5638 5636 5635 5633 5632 5631 5630 5630 5629 5629
5736 5730 5743 5743 5753 5748 5736 5734 5745 5736 5731 5726 5723 5714 5710 5711 5706 5701 5696 5693 5690 5688 5687 5684 5681 5677 5673 5668 5662 5656 5652 5649 5646 5642 5639 5636 5634 5632 5630 5629 5628 5627 5626 5625
5734 5724 5729 5745 5758 5761 5745 5732 5755 5748 5737 5729 5721 5705 5710 5716 5711 5706 5701 5698 5694 5692 5690 5686 5683 5680 5675 5669 5663 5658 5654 5650 5647 5644 5640 5637 5635 5632 5631 5629 5627 5626 5624 5623
5726 5728 5747 5757 5762 5755 5727 5738 5759 5755 5746 5735 5725 5721 5724 5722 5715 5710 5705 5701 5698 5695 5691 5687 5685 5682 5676 5670 5664 5661 5657 5653 5649 5646 5643 5639 5637 5634 5632 5630 5628 5626 5623 5621
5738 5729 5738 5760 5756 5747 5752 5763 5761 5757 5752 5743 5736 5731 5727 5722 5716 5712 5708 5704 5701 5696 5693 5691 5688 5683 5676 5671 5668 5665 5660 5656 5652 5649 5646 5643 5639 5636 5634 5631 5628 5626 5623 5620
5754 5752 5764 5768 5766 5770 5773 5768 5765 5760 5756 5749 5740 5733 5728 5723 5719 5715 5711 5707 5704 5699 5696 5694 5691 5686 5679 5675 5673 5668 5663 5659 5656 5653 5649 5645 5641 5637 5634 5631 5628 5625 5623 5620
5757 5766 5772 5772 5774 5775 5774 5770 5770 5767 5760 5753 5743 5737 5730 5726 5721 5717 5714 5711 5707 5702 5698 5695 5693 5689 5684 5680 5677 5673 5667 5663 5660 5656 5651 5647 5642 5638 5634 5630 5627 5625 5623 5620
5755 5767 5774 5775 5775 5775 5774 5772 5770 5767 5762 5755 5747 5740 5734 5728 5725 5721 5717 5714 5709 5705 5701 5698 5696 5692 5688 5685 5681 5676 5673 5668 5664 5659 5654 5649 5644 5638 5635 5630 5627 5625 5622 5621
5754 5773 5773 5774 5780 5779 5773 5769 5767 5764 5760 5756 5750 5743 5738 5733 5729 5725 5720 5717 5712 5708 5703 5702 5700 5695 5692 5688 5684 5680 5676 5672 5667 5663 5658 5654 5649 5642 5637 5635 5631 5629 5626 5623
5777 5781 5778 5779 5780 5779 5774 5771 5768 5764 5760 5755 5752 5747 5741 5736 5732 5728 5723 5719 5715 5711 5707 5705 5702 5698 5695 5691 5687 5683 5679 5675 5671 5667 5663 5659 5655 5650 5644 5638 5635 5632 5630 5628
5779 5776 5770 5771 5771 5774 5773 5771 5768 5764 5761 5757 5752 5748 5743 5738 5734 5729 5724 5722 5719 5715 5711 5707 5704 5700 5698 5694 5689 5685 5682 5678 5674 5670 5667 5664 5661 5658 5654 5649 5643 5639 5635 5633
5769 5769 5767 5769 5770 5769 5769 5767 5762 5759 5757 5754 5752 5747 5742 5737 5733 5730 5728 5725 5721 5716 5712 5709 5705 5702 5701 5697 5691 5688 5685 5681 5678 5675 5671 5669 5666 5663 5660 5657 5653 5649 5643 5638
5754 5760 5761 5758 5758 5760 5760 5759 5756 5755 5754 5752 5749 5746 5743 5739 5735 5731 5729 5725 5719 5715 5713 5710 5707 5705 5702 5698 5693 5689 5686 5683 5679 5676 5674 5672 5669 5667 5664 5661 5659 5656 5651 5647
5730 5735 5739 5742 5747 5751 5752 5753 5753 5753 5753 5750 5748 5746 5742 5737 5733 5729 5727 5725 5721 5718 5715 5712 5710 5708 5704 5699 5695 5690 5688 5684 5681 5677 5675 5674 5673 5671 5669 5666 5663 5661 5658 5655
5714 5721 5728 5734 5738 5741 5745 5749 5750 5750 5750 5750 5748 5744 5739 5735 5730 5727 5725 5723 5720 5717 5715 5714 5712 5708 5704 5700 5696 5693 5690 5687 5683 5680 5678 5676 5676 5675 5673 5671 5668 5665 5661 5657
5697 5704 5711 5718 5726 5732 5737 5741 5744 5746 5747 5747 5744 5741 5738 5734 5731 5728 5725 5721 5717 5713 5713 5713 5711 5707 5703 5700 5696 5692 5690 5687 5685 5683 5681 5680 5677 5675 5674 5672 5671 5670 5667 5662
5677 5684 5692 5700 5708 5715 5722 5729 5735 5737 5740 5740 5738 5736 5733 5731 5729 5725 5723 5720 5718 5716 5715 5712 5708 5704 5702 5699 5695 5691 5688 5686 5685 5684 5682 5680 5678 5676 5675 5675 5674 5672 5671 5668
5656 5663 5670 5678 5687 5696 5705 5713 5718 5722 5727 5729 5728 5727 5727 5726 5724 5721 5718 5715 5718 5717 5713 5710 5706 5702 5700 5697 5692 5690 5687 5685 5684 5683 5681 5680 5679 5677 5676 5676 5675 5674 5672 5671
5633 5639 5646 5654 5663 5672 5682 5691 5698 5704 5710 5713 5716 5717 5717 5716 5716 5715 5715 5713 5713 5712 5709 5705 5702 5700 5696 5693 5688 5687 5685 5683 5682 5681 5679 5678 5678 5677 5676 5675 5675 5674 5673 5672
5608 5614 5621 5628 5637 5647 5657 5665 5673 5681 5688 5693 5697 5700 5702 5704 5705 5704 5704 5707 5707 5705 5702 5700 5697 5694 5691 5688 5686 5683 5681 5680 5679 5678 5677 5676 5675 5674 5674 5673 5673 5673 5672 5671
5583 5589 5595 5602 5609 5617 5625 5634 5644 5655 5664 5672 5677 5682 5685 5687 5691 5695 5698 5699 5699 5697 5694 5693 5690 5687 5683 5681 5680 5679 5678 5677 5676 5675 5674 5673 5672 5671 5671 5670 5669 5669 5669 5668
5558 5563 5569 5574 5580 5586 5594 5604 5614 5624 5633 5642 5650 5658 5664 5669 5672 5677 5681 5685 5686 5684 5682 5682 5680 5677 5674 5674 5673 5673 5672 5673 5672 5671 5669 5668 5667 5666 5666 5665 5665 5665 5664 5664
5537 5540 5544 5548 5553 5558 5566 5573 5581 5589 5598 5606 5616 5626 5635 5644 5650 5656 5660 5664 5667 5667 5667 5667 5666 5664 5664 5664 5664 5665 5665 5666 5666 5664 5664 5662 5661 5660 5659 5659 5659 5658 5658 5658
5516 5519 5523 5526 5530 5533 5538 5544 5550 5558 5565 5570 5580 5591 5602 5612 5621 5628 5634 5639 5644 5645 5647 5650 5651 5651 5651 5652 5653 5655 5656 5657 5658 5657 5656 5655 5654 5653 5652 5652 5652 5652 5651 5651